Regional Weather Roundup
Issued by NWS

Home | Current Version | Previous Version | Text Only | Print | Product List | Glossary On
Versions: 1 2 3 4 5 6 7 8 9 10 11 12 13 14 15 16 17 18 19 20 21 22 23 24 25 26 27 28 29 30 31 32 33 34 35 36 37 38 39 40 41 42 43 44 45 46 47 48 49 50
000
ASUS43 KIND 250409
RWRIN

WEATHER ROUNDUP FOR INDIANA
NATIONAL WEATHER SERVICE INDIANAPOLIS IN
1200 AM EDT SAT MAR 25 2017

NOTE: "FAIR" INDICATES FEW OR NO CLOUDS BELOW 12,000 FEET WITH NO
SIGNIFICANT WEATHER AND/OR OBSTRUCTIONS TO VISIBILITY.

* - STATION DOES NOT REPORT WEATHER SUCH AS PRECIPITATION OR FOG.

+ - STATION NOT QUALITY CONTROLLED BY THE NATIONAL WEATHER SERVICE.
    USE DATA WITH CAUTION...ESPECIALLY DEWPOINT AND RELATIVE
    HUMIDITY OBSERVATIONS.

INZ001>003-010>013-019-020-250500-
NORTHWEST INDIANA

CITY           SKY/WX    TMP DP  RH WIND       PRES   REMARKS
GARY /AIRPORT/ CLOUDY    41  39  91 N8        30.07S FOG
KNOX *+        CLOUDY    50  28  43 NW8       30.03S
LA PORTE +     MOCLDY    46  41  85 N8        30.04F
MICHIGAN CITY+ LGT RAIN  41  41 100 CALM      30.05F
MONTICELLO +   MOCLDY    64  53  69 S12       30.02S
RENSSELAER +   MOCLDY    63  54  72 W5        30.02R
VALPARAISO     CLOUDY    47  42  83 NE3       30.03F

$$

LMZ046-743>745-250500-
SOUTHERN LAKE MICHIGAN

STATION/POSITION TIME  TEMP    WIND        PRES    WAVE
                       AIR SEA DIR/SP/G            HT
                 (UTC) (F)     (DEG/KT/KT) (MB)    (FT)
BURNS HARBOR     0340   39     330/  6/  7 1018.3F
MICHIGAN CITY    0340   39      40/  3/  4   N/A

$$

INZ004-005-014>016-021>024-250500-
NORTH CENTRAL INDIANA

CITY           SKY/WX    TMP DP  RH WIND       PRES   REMARKS
GOSHEN         CLOUDY    63  52  67 S10       30.02S
LOGANSPORT +   PTCLDY    59  52  77 S9        30.04F
PERU/GRISSOM   CLOUDY    63  54  74 SW13      30.02F
ROCHESTER +    CLOUDY    64  54  68 S8        30.03F
SOUTH BEND     LGT RAIN  50  44  80 NW8       30.05R
WARSAW +       CLOUDY    64  54  68 SW6       30.03F

$$

INZ006>009-017-018-025>027-250500-
NORTHEAST INDIANA

CITY           SKY/WX    TMP DP  RH WIND       PRES   REMARKS
ANGOLA *+      CLEAR     64  55  72 SW12      30.03S
AUBURN +       CLOUDY    64  52  63 SW7       30.05F
FORT WAYNE     CLOUDY    60  51  72 SW9       30.06S
HUNTINGTON +   CLOUDY    64  52  66 SW7       30.05S
KENDALLVILLE + CLOUDY    63  53  70 SW12      30.04F

$$

INZ028-029-035-036-043>045-051>053-250500-
WEST CENTRAL INDIANA

CITY           SKY/WX    TMP DP  RH WIND       PRES   REMARKS
CRAWFORDSVL +  MOCLDY    62  53  72 S12       30.05F
GREENCASTLE +  PTCLDY    64  50  59 S8        30.07F
LAFAYETTE      MOCLDY    65  54  67 S9        30.02F
TERRE HAUTE    MOCLDY    65  51  60 S8        30.06F

$$

INZ030>032-037>040-046>048-054>057-064-065-250500-
CENTRAL INDIANA

CITY           SKY/WX    TMP DP  RH WIND       PRES   REMARKS
CP ATTERBURY + CLOUDY    63  52  67 S5        30.11S
FISHERS *+     MOCLDY    63  55  77 S9        30.07
FRANKFORT +    MOCLDY    64  55  72 SW8       30.06F
GREENWOOD *+   CLOUDY    65  53  66 S7        30.10S
INDIANAPOLIS   CLOUDY    65  52  62 S13       30.07F
-EAGLE CREEK   PTCLDY    65  52  62 S7        30.06F
KOKOMO +       MOCLDY    63  53  70 SW13      30.05F
MARION +       CLOUDY    61  52  71 SW13      30.06F HAZE
MT COMFORT *+  MOCLDY    63  52  67 S8        30.09S
SHELBYVILLE    CLOUDY    66  52  60 S10       30.09F
ZIONSVILLE +   PTCLDY    62  52  70 S7        30.07F

$$

INZ033-034-041-042-049-050-058-059-250500-
EAST CENTRAL INDIANA

CITY           SKY/WX    TMP DP  RH WIND       PRES   REMARKS
MUNCIE         MOCLDY    65  52  62 S8        30.07S
RICHMOND +     MOCLDY    57  50  77 S9        30.13S

$$

INZ060-061-067>069-081>083-085>088-250500-
SOUTHWEST INDIANA

CITY           SKY/WX    TMP DP  RH WIND       PRES   REMARKS
EVANSVILLE     CLOUDY    64  51  62 SE3       30.08F
HUNTINGBURG *+ CLOUDY    61  52  72 SE6       30.11S
WASHINGTON +   CLOUDY    62  50  66 CALM      30.08S

$$

INZ062-063-066-070>080-084-089>092-250500-
SOUTH CENTRAL AND SOUTHEAST INDIANA

CITY           SKY/WX    TMP DP  RH WIND       PRES   REMARKS
BEDFORD +      CLOUDY    66  50  55 SE3       30.11S
BLOOMINGTON    CLOUDY    66  50  56 S7        30.09F
MADISON *+     CLOUDY    63  50  63 S5        30.15F
NORTH VERNON + CLOUDY    66  52  59 S6        30.13S
SEYMOUR +      MOCLDY    64  52  63 S5        30.12S

$$





USA.gov is the U.S. government's official web portal to all federal, state and local government web resources and services.